sat.trackr.live / text

‹ back to catalog

STARLINK-36652

NORAD 67839 · 2026-033U

PAYLOAD ACTIVE UNKNOWN

§ Identity

Operator
Country
US
Launch date
2026-02-16
Launch site
AFETR
Launch vehicle
Mass (kg)
RCS (m²)

Purposes: comms

External: N2YO · Heavens-Above · Gunter

§ Orbital elements

Epoch: 2026-09-19T16:40:09.095808Z

Period
94.27 min
Inclination
43.0040°
Eccentricity
0.0001848
Mean motion
15.27586270 rev/d
Perigee alt
481.8 km
Apogee alt
484.3 km
Semi-major
6,861.2 km
B*
3.4230e-4
RAAN
251.5033°
Arg perigee
279.9128°
Mean anomaly
80.1515°
Rev number
3,434

§ Raw data

STARLINK-366521 67839U 26033U   26262.69454972  .00009171  00000+0  34230-3 0  99932 67839  43.0040 251.5033 0001848 279.9128  80.1515 15.27586270 34341

JSON: /api/v1/satellites/67839 · /tle

For live sub-satellite position, see the globe view (requires WebGL).

§ Visibility from observer

Set your observer location to see the next 7 days of passes ≥ 10°. The values pass through the URL so the page stays shareable.

No JS? Fill the form by hand. The geolocation button needs JavaScript.